TimeMDT,TemperatureF,Dew PointF,Humidity,Sea Level PressureIn,VisibilityMPH,Wind Direction,Wind SpeedMPH,Gust SpeedMPH,PrecipitationIn,Events,Conditions,WindDirDegrees,DateUTC
12:15 AM,53.6,51.8,94,30.52,10.0,Calm,Calm,-,N/A,Rain,Light Rain,0,2013-07-26 06:15:00
12:35 AM,53.4,51.8,94,30.53,10.0,Calm,Calm,-,N/A,,Scattered Clouds,0,2013-07-26 06:35:00
12:55 AM,52.9,51.4,95,30.53,10.0,Calm,Calm,-,N/A,,Scattered Clouds,0,2013-07-26 06:55:00
1:15 AM,53.6,52.3,95,30.53,10.0,Calm,Calm,-,N/A,,Mostly Cloudy,0,2013-07-26 07:15:00
1:35 AM,53.1,51.8,95,30.54,10.0,Calm,Calm,-,N/A,,Overcast,0,2013-07-26 07:35:00
1:55 AM,53.1,51.8,95,30.53,10.0,Calm,Calm,-,N/A,Rain,Light Rain,0,2013-07-26 07:55:00
2:15 AM,52.7,51.3,95,30.51,10.0,Calm,Calm,-,0.01,,Scattered Clouds,0,2013-07-26 08:15:00
2:35 AM,51.1,50.0,96,30.51,10.0,Calm,Calm,-,0.01,,Clear,0,2013-07-26 08:35:00
2:55 AM,50.5,49.6,97,30.51,10.0,Calm,Calm,-,0.01,,Clear,0,2013-07-26 08:55:00
3:15 AM,49.1,48.2,97,30.50,10.0,Calm,Calm,-,N/A,,Clear,0,2013-07-26 09:15:00
3:35 AM,48.9,48.2,97,30.50,7.0,Calm,Calm,-,N/A,,Mostly Cloudy,0,2013-07-26 09:35:00
3:55 AM,49.1,48.2,97,30.50,10.0,Calm,Calm,-,N/A,,Overcast,0,2013-07-26 09:55:00
4:15 AM,49.8,49.1,97,30.50,10.0,Calm,Calm,-,N/A,,Overcast,0,2013-07-26 10:15:00
4:35 AM,50.0,49.1,97,30.51,10.0,Calm,Calm,-,N/A,,Overcast,0,2013-07-26 10:35:00
4:55 AM,50.2,49.3,97,30.51,10.0,Calm,Calm,-,N/A,,Overcast,0,2013-07-26 10:55:00
5:15 AM,50.5,50.0,98,30.51,5.0,Calm,Calm,-,N/A,,Overcast,0,2013-07-26 11:15:00
5:35 AM,50.5,49.8,97,30.51,2.0,Calm,Calm,-,N/A,,Overcast,0,2013-07-26 11:35:00
5:55 AM,50.4,49.6,97,30.51,1.0,Calm,Calm,-,N/A,,Overcast,0,2013-07-26 11:55:00
6:15 AM,50.4,50.0,99,30.52,2.5,Calm,Calm,-,N/A,,Overcast,0,2013-07-26 12:15:00
6:35 AM,50.0,49.5,98,30.52,1.8,Calm,Calm,-,N/A,,Overcast,0,2013-07-26 12:35:00
6:55 AM,50.2,49.6,98,30.53,1.0,Calm,Calm,-,N/A,,Overcast,0,2013-07-26 12:55:00
7:15 AM,50.4,50.0,99,30.53,2.5,Calm,Calm,-,N/A,,Overcast,0,2013-07-26 13:15:00
7:35 AM,50.7,50.2,98,30.53,3.0,Calm,Calm,-,N/A,,Overcast,0,2013-07-26 13:35:00
7:55 AM,51.1,50.4,97,30.54,7.0,Calm,Calm,-,N/A,,Overcast,0,2013-07-26 13:55:00
8:15 AM,51.3,50.0,95,30.55,10.0,Calm,Calm,-,N/A,,Overcast,0,2013-07-26 14:15:00
8:35 AM,51.8,49.8,93,30.55,10.0,Calm,Calm,-,N/A,,Overcast,0,2013-07-26 14:35:00
8:55 AM,52.9,50.5,92,30.55,10.0,Calm,Calm,-,N/A,,Overcast,0,2013-07-26 14:55:00
9:15 AM,53.6,50.5,89,30.55,10.0,Calm,Calm,-,N/A,,Overcast,0,2013-07-26 15:15:00
9:35 AM,55.8,51.8,87,30.54,10.0,Calm,Calm,-,N/A,,Scattered Clouds,0,2013-07-26 15:35:00
9:55 AM,57.2,52.3,84,30.54,10.0,Calm,Calm,-,N/A,,Clear,0,2013-07-26 15:55:00
10:15 AM,59.5,52.7,78,30.53,10.0,Calm,Calm,-,N/A,,Clear,0,2013-07-26 16:15:00
10:35 AM,63.1,52.7,69,30.53,10.0,Calm,Calm,-,N/A,,Clear,0,2013-07-26 16:35:00
10:55 AM,64.6,52.2,64,30.53,10.0,Calm,Calm,-,N/A,,Clear,0,2013-07-26 16:55:00
11:15 AM,67.6,52.0,57,30.53,10.0,SE,3.5,-,N/A,,Clear,130,2013-07-26 17:15:00
11:35 AM,67.6,52.2,58,30.52,10.0,Calm,Calm,-,N/A,,Scattered Clouds,0,2013-07-26 17:35:00
11:55 AM,69.1,53.2,57,30.52,10.0,Calm,Calm,-,N/A,,Scattered Clouds,0,2013-07-26 17:55:00
12:15 PM,68.2,49.3,51,30.52,10.0,Calm,Calm,-,N/A,,Mostly Cloudy,0,2013-07-26 18:15:00
12:35 PM,68.5,50.7,53,30.51,10.0,North,3.5,-,N/A,Rain,Light Rain,360,2013-07-26 18:35:00
12:55 PM,69.1,53.1,57,30.50,10.0,East,10.4,-,N/A,,Mostly Cloudy,100,2013-07-26 18:55:00
1:15 PM,70.3,52.2,52,30.50,10.0,ESE,4.6,-,N/A,,Scattered Clouds,120,2013-07-26 19:15:00
1:35 PM,69.3,52.0,54,30.48,10.0,SE,8.1,-,N/A,,Mostly Cloudy,140,2013-07-26 19:35:00
1:55 PM,70.9,53.1,53,30.48,10.0,South,15.0,20.7,N/A,,Scattered Clouds,180,2013-07-26 19:55:00
2:15 PM,67.3,52.2,58,30.48,10.0,South,15.0,21.9,N/A,,Mostly Cloudy,180,2013-07-26 20:15:00
2:35 PM,63.5,54.1,72,30.50,5.0,NE,15.0,-,0.08,Rain,Heavy Rain,50,2013-07-26 20:35:00
2:55 PM,54.0,47.7,79,30.50,10.0,South,6.9,-,0.20,Rain,Light Rain,190,2013-07-26 20:55:00
3:15 PM,54.9,50.9,86,30.51,7.0,ESE,5.8,-,0.01,Rain,Light Rain,110,2013-07-26 21:15:00
3:35 PM,57.6,52.9,84,30.52,10.0,SSE,4.6,-,0.02,,Mostly Cloudy,160,2013-07-26 21:35:00
3:55 PM,59.4,55.0,86,30.51,10.0,SSW,5.8,-,0.02,,Scattered Clouds,200,2013-07-26 21:55:00
4:15 PM,59.0,52.9,80,30.52,10.0,West,3.5,-,N/A,,Mostly Cloudy,280,2013-07-26 22:15:00
4:35 PM,58.6,54.1,85,30.54,7.0,Calm,Calm,-,0.01,Rain,Light Rain,0,2013-07-26 22:35:00
4:55 PM,57.6,52.0,82,30.54,7.0,NNE,5.8,-,0.02,Rain,Light Rain,20,2013-07-26 22:55:00
5:15 PM,58.1,50.5,76,30.55,10.0,Calm,Calm,-,N/A,,Scattered Clouds,0,2013-07-26 23:15:00
5:35 PM,57.6,49.5,74,30.55,10.0,Calm,Calm,-,N/A,,Mostly Cloudy,0,2013-07-26 23:35:00
5:55 PM,58.1,50.7,76,30.55,10.0,SSE,3.5,-,N/A,,Scattered Clouds,150,2013-07-26 23:55:00
6:15 PM,57.2,51.3,81,30.52,10.0,South,11.5,-,N/A,,Clear,190,2013-07-27 00:15:00
6:35 PM,57.2,50.0,77,30.51,10.0,South,16.1,-,N/A,,Mostly Cloudy,170,2013-07-27 00:35:00
6:55 PM,57.4,50.9,79,30.52,10.0,SSE,15.0,-,N/A,,Scattered Clouds,160,2013-07-27 00:55:00
7:15 PM,56.3,50.2,80,30.52,10.0,South,13.8,-,N/A,,Clear,170,2013-07-27 01:15:00
7:35 PM,56.1,48.7,76,30.52,10.0,SE,10.4,20.7,N/A,,Clear,130,2013-07-27 01:35:00
7:55 PM,56.1,48.4,75,30.53,10.0,SSE,12.7,19.6,N/A,,Scattered Clouds,150,2013-07-27 01:55:00
8:15 PM,56.7,48.6,74,30.54,10.0,SE,4.6,9.2,N/A,,Scattered Clouds,140,2013-07-27 02:15:00
8:35 PM,52.9,49.8,89,30.55,10.0,West,4.6,-,N/A,,Scattered Clouds,280,2013-07-27 02:35:00
8:55 PM,52.3,49.6,91,30.56,10.0,WNW,5.8,-,N/A,,Scattered Clouds,300,2013-07-27 02:55:00
9:15 PM,51.8,49.5,92,30.56,10.0,West,4.6,-,N/A,,Mostly Cloudy,280,2013-07-27 03:15:00
9:35 PM,51.8,49.5,92,30.56,10.0,Calm,Calm,-,N/A,,Scattered Clouds,0,2013-07-27 03:35:00
9:55 PM,51.1,49.1,93,30.58,10.0,Calm,Calm,-,N/A,,Clear,0,2013-07-27 03:55:00
10:15 PM,50.9,49.1,94,30.58,10.0,Calm,Calm,-,N/A,,Scattered Clouds,0,2013-07-27 04:15:00
10:35 PM,50.5,49.1,95,30.56,10.0,Calm,Calm,-,N/A,,Scattered Clouds,0,2013-07-27 04:35:00
10:55 PM,50.0,48.6,95,30.56,10.0,Calm,Calm,-,N/A,,Clear,0,2013-07-27 04:55:00
11:15 PM,49.6,48.4,95,30.56,10.0,Calm,Calm,-,N/A,,Scattered Clouds,0,2013-07-27 05:15:00
11:35 PM,49.6,48.4,95,30.56,10.0,Calm,Calm,-,N/A,,Scattered Clouds,0,2013-07-27 05:35:00
11:55 PM,49.1,48.2,97,30.56,10.0,Calm,Calm,-,N/A,,Scattered Clouds,0,2013-07-27 05:55:00